NIMIQ 5

Last updated on Mon Feb 16 2026 00:02:47 GMT+0000 (Coordinated Universal Time)

1 35873U 09050A 26046.52607716 -.00000252 00000+0 00000+0 0 9990 2 35873 0.0692 270.5928 0002473 56.7879 294.8267 1.00272303 60121
UTC large
Height (km)
Speed (km/s)
/
Latitude / Longitude
Inclination (degrees)
Orbital Period (minutes)
Azimuth
Elevation
Range (km)
Doppler Factor

Next 0 passes for location: London (51.5072 / 0.1276)

Sorry there are no passes over London.